Showing default

DEKART, 46493

Orbit data source: Space-Track

DEKART, 46493 is a payload satellite owned by MGU (CIS) in SSO that was launched on Mon, 28 Sep 2020 UTC via a SOYUZ-2-1B launch vehicle from the Plesetsk Missile And Space Complex (PKMTR). Payload-class satellites include a variety of spacecraft equipped with specific instruments for various scientific and technological missions. These include communications satellites like Starlink; space stations such as the ISS; scientific satellites like the Hubble; Earth observation satellites from companies like Planet Labs, Umbra, and HawkEye 360; GPS; miniature CubeSats for education and research; and military/defense satellites.

Loading next visibility...
Identifier
46493, 2020-068H
Orbit
SSO
Country
Flag of CISCIS
Related business
Manufacturer
MGU
Mission
Operational Amateur Science
Bus & Motor
CUBESAT 3U, Unknown motor
Mass
4 kg wet, 4 kg dry
Launch date (UTC)
2020-09-28 (5 years ago)
Launch vehicle
SOYUZ-2-1B
Launch site
Plesetsk Missile And Space Complex (PKMTR)
Object type
Payload
Rocket body
Debris
Shape & HBR
Box, Unknown HBR
Radar Cross Section
0.035 m², Medium (>0.1 m² and < 1m²)

Expand to show TLE details & history
Last TLE update: 8 hours ago

TLE from 8 hours ago
0 DEKART
1 46493U 20068H   25260.91929554  .00010707  00000-0  38099-3 0  9998
2 46493  97.8670 247.4449 0011804 156.0524 204.1266 15.29104118274046
Epoch: 2025-09-17T22:03Z
TLE epoch observation values (Epoch: 2025-09-17T22:03:47.134Z)
Latitude
-0.00004°
Longitude
-80.58982°
Altitude
488.968 km
Speed
7.616 km/s
True Right ascension
16h 29m 46s
True Declination
0° 00' 00"
Sunlit
Object was in daylight at epoch
Visualization orbit readout
Latitude
Unknown
Longitude
Unknown
Altitude
Unknown
Speed
Unknown
Apparent Right ascension
Unknown
Apparent Declination
Unknown
Sunlit
N/A
Visualization observer readout
Local Sidereal Time
23:20:50
Azimuth
Unknown
Elevation
Unknown
Doppler factor
Unknown
Orbital elements
Apogee altitude
483.553 km
Perigee altitude
467.373 km
Semi-major axis
6,853.6 km
Eccentricity
0.00118
Inclination
97.867°
RAAN
247.4449°
Arg. of periapsis
156.0524°
True anomaly
204.07138°
Mean anomaly
204.1266°
Eccentric anomaly
204.09898°
Mean motion
3.8253 °/min
Orbital period
94.11 mins
BSTAR
0.00038099
Loading maneuver chart data...
Computing Atmospheric mass density...
Loading historical data...
Loading historical data...
Loading historical data...
Loading historical data...
Loading historical data...
Loading historical data...
Loading historical data...

Documentation

Showing up to 5 results
|